Вернуться в каталог

STARLINK-36279

АктивенСвязьVLEO
NORAD 67193·PAYLOAD·🇺🇸 United States

Запущен Dec 17, 2025 с Vandenberg Space Force Base

Loading…

Ближайшие Пролёты (ближайшие 24 часа)

TLE

СвежийSource: CelesTrak SupGP

Эпоха: Sep 15, 2026, 02:53 UTC

1 67193C 25304B   26258.12062500 -.00043907  00000+0 -36804-2 0  2584
2 67193  70.0018  56.8157 0002891 267.3523 326.7732 14.98345192    11

Отслеживайте STARLINK-36279 в реальном времени с AllMySat

Download on the App Store